Total_Precipitation_Accumulation
0.94 0.96 1.01 1.08 1.04 1.02 1.01 0.96 0.89 0.87 0.94 0.97 0.96 1.01 1.04 1.05 1.06 1.12 1.11 1.07 1.05 1.01 0.98 0.99 0.99 1.02 1.10 1.10 1.05 1.01 0.98 1.07 1.09 0.57 0.41 0.45 0.54 0.59 0.59 0.55 0.50 0.49 0.53
0.91 0.95 0.96 1.06 1.10 1.06 1.10 1.09 0.98 0.89 0.90 0.96 1.00 1.02 1.09 1.13 1.11 1.15 1.18 1.17 1.21 1.18 1.08 1.05 1.04 1.06 1.13 1.17 1.24 1.21 1.10 1.03 1.10 0.88 0.57 0.54 0.63 0.69 0.71 0.70 0.64 0.59 0.55
0.84 0.91 0.97 1.01 1.08 1.07 1.08 1.15 1.13 1.10 1.11 1.09 1.12 1.16 1.20 1.24 1.27 1.30 1.31 1.36 1.41 1.40 1.34 1.29 1.18 1.16 1.22 1.21 1.25 1.27 1.20 1.11 1.08 1.05 0.82 0.69 0.71 0.71 0.79 0.81 0.79 0.76 0.69
0.81 0.94 0.96 1.00 1.03 1.05 1.09 1.12 1.23 1.29 1.36 1.42 1.40 1.39 1.40 1.45 1.58 1.65 1.65 1.64 1.60 1.56 1.53 1.50 1.43 1.36 1.34 1.34 1.36 1.31 1.25 1.26 1.21 1.19 1.04 0.89 0.86 0.81 0.89 0.95 0.97 0.93 0.86
0.77 0.88 0.95 1.00 1.11 1.19 1.20 1.21 1.24 1.36 1.44 1.45 1.49 1.51 1.48 1.64 1.94 2.06 1.91 1.70 1.56 1.50 1.45 1.44 1.48 1.58 1.58 1.62 1.68 1.57 1.47 1.51 1.45 1.40 1.25 1.05 0.93 0.94 0.99 0.99 1.09 1.05 1.00
0.73 0.80 0.89 1.02 1.12 1.25 1.28 1.31 1.32 1.36 1.44 1.46 1.46 1.49 1.47 1.56 1.97 2.09 1.72 1.38 1.31 1.35 1.35 1.27 1.27 1.45 1.52 1.60 1.73 1.72 1.73 1.79 1.79 1.68 1.51 1.29 1.03 0.95 1.02 1.18 1.31 1.40 1.32
0.62 0.73 0.80 0.96 1.06 1.14 1.18 1.20 1.23 1.17 1.15 1.25 1.34 1.31 1.29 1.37 1.72 1.81 1.51 1.11 1.02 1.11 1.15 1.13 1.11 1.17 1.36 1.33 1.45 1.51 1.57 1.70 1.85 1.90 1.86 1.52 1.24 1.11 1.29 1.46 1.47 1.54 1.43
0.57 0.67 0.71 0.83 0.96 1.00 1.06 1.09 1.09 1.03 1.01 1.12 1.16 1.10 1.04 1.09 1.43 1.57 1.37 1.00 0.95 1.01 1.05 1.07 1.05 1.06 1.20 1.39 1.45 1.35 1.27 1.36 1.59 1.75 1.88 1.70 1.49 1.46 1.67 1.90 1.94 1.91 1.73
0.52 0.60 0.64 0.73 0.88 0.88 0.95 1.04 1.01 1.02 0.99 0.97 0.97 0.94 0.89 0.92 1.20 1.48 1.35 0.94 0.97 0.99 1.01 1.08 1.03 0.96 1.24 1.45 1.43 1.35 1.23 1.21 1.34 1.61 1.78 1.83 1.85 1.92 2.09 2.38 2.52 2.54 2.34
0.49 0.56 0.59 0.64 0.77 0.77 0.78 0.84 0.88 0.89 0.91 0.93 0.90 0.86 0.84 0.81 1.01 1.39 1.43 1.00 0.98 0.97 0.98 1.03 1.17 1.15 1.30 1.39 1.30 1.32 1.35 1.19 1.07 1.15 1.26 1.35 1.40 1.51 1.83 2.09 2.36 2.61 2.52
0.42 0.47 0.54 0.60 0.66 0.67 0.69 0.72 0.77 0.80 0.84 0.88 0.89 0.83 0.76 0.76 0.85 1.15 1.51 1.23 1.03 0.95 0.97 1.01 1.06 1.21 1.25 1.32 1.33 1.30 1.42 1.26 1.08 1.14 1.18 1.16 1.19 1.29 1.46 1.72 2.08 2.41 2.61
0.39 0.45 0.50 0.57 0.60 0.61 0.64 0.70 0.71 0.79 0.89 0.91 0.88 0.86 0.79 0.75 0.81 1.00 1.29 1.41 1.24 1.03 0.97 0.86 0.89 1.08 1.12 1.23 1.24 1.29 1.35 1.29 1.20 1.22 1.21 1.18 1.19 1.27 1.38 1.50 1.74 2.00 2.18
0.41 0.44 0.50 0.55 0.55 0.61 0.66 0.73 0.76 0.82 0.91 0.93 0.89 0.86 0.83 0.81 0.87 1.07 1.09 1.16 1.25 1.12 1.05 1.07 0.99 1.05 1.07 1.04 1.08 1.19 1.20 1.13 1.22 1.23 1.14 1.08 1.09 1.17 1.23 1.34 1.44 1.65 1.84
0.41 0.42 0.48 0.57 0.59 0.59 0.64 0.72 0.75 0.79 0.93 0.98 0.95 0.92 0.85 0.83 0.95 1.17 1.11 1.05 1.15 1.16 1.14 1.13 1.08 1.07 1.06 1.01 1.02 1.02 0.99 1.04 1.15 1.14 1.04 0.95 0.94 1.05 1.18 1.30 1.42 1.53 1.74
0.41 0.43 0.48 0.58 0.62 0.60 0.62 0.67 0.73 0.75 0.96 1.13 1.06 1.05 1.03 1.04 1.12 1.35 1.35 1.27 1.29 1.31 1.32 1.29 1.21 1.15 1.13 1.04 0.97 0.93 0.94 1.00 1.05 1.00 0.98 0.97 0.96 1.02 1.11 1.21 1.40 1.52 1.66
0.47 0.48 0.52 0.60 0.62 0.62 0.63 0.67 0.74 0.77 0.84 0.88 0.95 1.04 1.02 1.12 1.19 1.15 1.22 1.28 1.30 1.36 1.39 1.34 1.15 1.03 1.01 0.96 0.94 0.92 0.89 0.88 0.88 0.92 0.97 0.97 1.00 1.05 1.08 1.12 1.30 1.47 1.55
0.52 0.54 0.58 0.62 0.63 0.64 0.62 0.64 0.72 0.71 0.72 0.76 0.82 0.90 1.01 1.10 1.06 1.04 1.11 1.13 1.16 1.16 1.14 1.03 0.95 0.94 0.92 0.90 0.89 0.88 0.88 0.81 0.81 0.89 0.93 0.93 0.98 1.03 1.07 1.10 1.16 1.30 1.39
0.54 0.60 0.64 0.64 0.64 0.64 0.62 0.62 0.67 0.74 0.79 0.81 0.86 0.92 0.99 1.06 1.05 1.05 1.12 1.17 1.17 1.08 0.94 0.91 0.90 0.89 0.89 0.89 0.90 0.89 0.87 0.85 0.87 0.91 0.92 0.93 0.99 1.07 1.08 1.06 1.09 1.20 1.28
0.59 0.63 0.66 0.66 0.65 0.62 0.61 0.63 0.66 0.70 0.77 0.87 0.92 0.99 1.06 1.05 1.03 1.05 1.06 1.02 1.01 0.97 0.91 0.87 0.84 0.83 0.87 0.91 0.93 0.91 0.91 0.91 0.89 0.92 0.93 0.92 0.95 1.03 1.04 0.96 0.98 1.11 1.24
0.62 0.72 0.74 0.70 0.68 0.65 0.64 0.66 0.68 0.72 0.77 0.85 0.93 0.99 1.09 1.13 1.06 1.05 0.96 0.91 0.96 0.96 0.92 0.90 0.85 0.82 0.89 0.94 0.98 0.99 0.98 0.93 0.91 0.92 0.88 0.86 0.87 0.93 0.95 0.91 0.93 1.02 1.09
0.66 0.70 0.74 0.72 0.71 0.71 0.72 0.72 0.73 0.77 0.82 0.84 0.88 0.98 1.22 1.23 1.06 0.91 0.86 0.85 0.89 0.94 0.93 0.92 0.91 0.91 0.93 0.97 0.98 0.97 0.98 0.93 0.90 0.91 0.91 0.86 0.85 0.87 0.86 0.88 0.88 0.91 0.96
0.68 0.70 0.67 0.69 0.74 0.77 0.81 0.79 0.81 0.83 0.83 0.86 0.88 0.93 1.02 0.97 0.90 0.84 0.82 0.81 0.82 0.86 0.91 0.97 0.96 0.91 0.93 0.99 1.02 1.00 0.95 0.89 0.83 0.84 0.86 0.84 0.82 0.82 0.81 0.83 0.82 0.85 0.90
0.71 0.73 0.71 0.71 0.74 0.82 0.81 0.75 0.79 0.82 0.86 0.89 0.89 0.90 0.90 0.90 0.86 0.82 0.82 0.82 0.81 0.80 0.82 0.90 0.93 0.86 0.83 0.87 0.92 0.98 0.98 0.89 0.80 0.81 0.88 0.87 0.82 0.77 0.78 0.79 0.76 0.80 0.85
0.71 0.71 0.73 0.76 0.78 0.79 0.78 0.78 0.79 0.82 0.89 0.95 0.95 0.93 0.92 0.90 0.87 0.80 0.77 0.78 0.78 0.76 0.78 0.83 0.85 0.81 0.78 0.81 0.83 0.83 0.84 0.85 0.88 0.88 0.88 0.89 0.84 0.77 0.78 0.79 0.77 0.76 0.80
0.69 0.71 0.74 0.80 0.84 0.83 0.84 0.84 0.84 0.85 0.91 0.96 0.97 0.95 0.91 0.87 0.83 0.79 0.75 0.75 0.77 0.77 0.75 0.77 0.80 0.80 0.76 0.74 0.76 0.79 0.87 0.95 1.01 1.10 1.18 1.18 1.03 0.88 0.84 0.84 0.80 0.76 0.78
0.67 0.70 0.75 0.83 0.88 0.88 0.89 0.90 0.87 0.88 0.95 0.96 0.94 0.94 0.91 0.89 0.85 0.82 0.81 0.80 0.83 0.81 0.78 0.74 0.74 0.77 0.77 0.74 0.75 0.81 0.90 0.95 1.07 1.27 1.47 1.51 1.24 0.96 0.86 0.86 0.79 0.77 0.80